Date String (YYYY-MM-DD hh:mm:ss) UTC,Instrument flags,Ambient pressure (hPa),Sample flow (lpm),Bypass flow (lpm),Sample temperature (°C),Ambient temperature (°C),ASC tube jacket temperature (°C),LED temperature (°C),Box temperature (°C),Sample RH (%),Span deviation,Mass concentration (μg/m³),Mass concentration (μg/m³),Mass concentration (μg/m³)
DateTimeUTC,F1_M11,P_M11,Q1_M11,Q2_M11,T1_M11,T2_M11,T3_M11,T4_M11,T5_M11,U1_M11,ZSPAN_M11,X0_M11,X2_M11,X1_M11
2021-11-06 04:00:00,,0828.3,4.98,0.00,29.8,28.7,00.0,38.9,31.4,08.3,0000.0,0005.26,0002.39,0001.49
2021-11-06 04:01:00,,0828.3,5.00,0.00,29.8,28.7,00.0,38.9,31.4,08.3,0000.0,0005.49,0002.48,0001.55
2021-11-06 04:02:00,,0828.3,4.99,0.00,29.8,28.7,00.0,38.9,31.4,08.4,0000.0,0005.75,0002.61,0001.61
2021-11-06 04:03:00,,0828.3,4.99,0.00,29.8,28.7,00.0,38.9,31.4,08.4,0000.0,0006.01,0002.71,0001.67
2021-11-06 04:04:00,,0828.3,5.01,0.00,29.8,28.7,00.0,38.9,31.4,08.3,0000.0,0006.46,0002.79,0001.74
2021-11-06 04:05:00,,0828.3,5.01,0.00,29.8,28.7,00.0,38.9,31.4,08.4,0000.0,0006.49,0002.91,0001.81
2021-11-06 04:06:00,,0828.3,5.01,0.00,29.8,28.7,00.0,38.9,31.4,08.4,0000.0,0006.78,0003.06,0001.89
2021-11-06 04:07:00,,0828.4,4.98,0.00,29.8,28.7,00.0,38.9,31.4,08.5,0000.0,0007.27,0003.17,0001.97
2021-11-06 04:08:00,,0828.4,5.00,0.00,29.8,28.7,00.0,38.8,31.4,08.5,0000.0,0007.99,0003.16,0002.03
2021-11-06 04:09:00,,0828.4,4.99,0.00,29.7,28.7,00.0,38.8,31.3,08.5,0000.0,0008.66,0003.24,0002.14
2021-11-06 04:10:00,,0828.5,5.00,0.00,29.7,28.7,00.0,38.9,31.4,08.5,0000.0,0009.54,0003.26,0002.23
2021-11-06 04:11:00,,0828.5,5.01,0.00,29.7,28.7,00.0,38.8,31.4,08.5,0000.0,0010.70,0003.31,0002.30
2021-11-06 04:12:00,,0828.5,4.99,0.00,29.7,28.7,00.0,38.8,31.4,08.5,0000.0,0010.86,0003.39,0002.43
2021-11-06 04:13:00,,0828.5,5.01,0.00,29.7,28.7,00.0,38.8,31.4,08.6,0000.0,0011.17,0003.51,0002.55
2021-11-06 04:14:00,,0828.5,4.99,0.00,29.7,28.7,00.0,38.8,31.3,08.6,0000.0,0011.36,0003.59,0002.66
2021-11-06 04:15:00,,0828.5,5.00,0.00,29.7,28.7,00.0,38.8,31.4,08.5,0000.0,0011.09,0003.65,0002.74
2021-11-06 04:16:00,,0828.5,5.00,0.00,29.7,28.7,00.0,38.8,31.4,08.6,0000.0,0011.07,0003.68,0002.78
2021-11-06 04:17:00,,0828.5,4.99,0.00,29.7,28.7,00.0,38.8,31.3,08.6,0000.0,0011.12,0003.68,0002.79
2021-11-06 04:18:00,,0828.5,4.99,0.00,29.7,28.7,00.0,38.8,31.3,08.6,0000.0,0011.46,0003.72,0002.82
2021-11-06 04:19:00,,0828.5,5.01,0.00,29.7,28.7,00.0,38.8,31.3,08.6,0000.0,0010.96,0003.77,0002.88
2021-11-06 04:20:00,,0828.5,4.99,0.00,29.7,28.6,00.0,38.8,31.3,08.6,0000.0,0010.47,0003.79,0002.92
2021-11-06 04:21:00,,0828.5,4.99,0.00,29.7,28.6,00.0,38.8,31.3,08.6,0000.0,0009.87,0003.84,0002.99
2021-11-06 04:22:00,,0828.5,5.00,0.00,29.7,28.6,00.0,38.8,31.4,08.6,0000.0,0008.78,0003.84,0003.04
2021-11-06 04:23:00,,0828.4,5.00,0.00,29.7,28.6,00.0,38.8,31.4,08.6,0000.0,0008.90,0003.87,0003.04
2021-11-06 04:24:00,,0828.5,5.00,0.00,29.7,28.7,00.0,38.8,31.4,08.6,0000.0,0008.85,0003.85,0003.08
2021-11-06 04:25:00,,0828.5,4.99,0.00,29.7,28.7,00.0,38.8,31.4,08.6,0000.0,0009.42,0003.85,0003.10
2021-11-06 04:26:00,,0828.5,4.99,0.00,29.7,28.7,00.0,38.8,31.4,08.6,0000.0,0009.95,0003.85,0003.12
2021-11-06 04:27:00,,0828.4,5.00,0.00,29.7,28.6,00.0,38.8,31.3,08.6,0000.0,0010.11,0003.87,0003.16
2021-11-06 04:28:00,,0828.4,5.01,0.00,29.7,28.7,00.0,38.8,31.4,08.6,0000.0,0010.19,0003.88,0003.19
2021-11-06 04:29:00,,0828.5,5.00,0.00,29.7,28.7,00.0,38.8,31.4,08.7,0000.0,0010.30,0003.95,0003.23
2021-11-06 04:30:00,,0828.5,5.00,0.00,29.7,28.7,00.0,38.8,31.4,08.7,0000.0,0010.32,0003.96,0003.25
2021-11-06 04:31:00,,0828.5,5.00,0.00,29.7,28.6,00.0,38.8,31.3,08.7,0000.0,0011.17,0004.00,0003.26
2021-11-06 04:32:00,,0828.9,5.01,0.00,29.7,28.6,00.0,38.8,31.3,08.7,0000.0,0011.36,0004.01,0003.26
2021-11-06 04:33:00,,0829.1,4.99,0.00,29.7,28.7,00.0,38.8,31.4,08.8,0000.0,0011.26,0004.03,0003.27
2021-11-06 04:34:00,,0828.7,4.99,0.00,29.7,28.7,00.0,38.8,31.3,08.8,0000.0,0010.93,0004.01,0003.28
2021-11-06 04:35:00,,0828.7,5.02,0.00,29.7,28.6,00.0,38.7,31.3,08.8,0000.0,0011.27,0003.96,0003.28
2021-11-06 04:36:00,,0828.6,5.00,0.00,29.7,28.7,00.0,38.7,31.3,08.7,0000.0,0010.97,0003.93,0003.26
2021-11-06 04:37:00,,0828.5,5.00,0.00,29.7,28.7,00.0,38.7,31.3,08.6,0000.0,0010.68,0003.97,0003.28
2021-11-06 04:38:00,,0828.9,4.99,0.00,29.7,28.7,00.0,38.8,31.4,08.7,0000.0,0010.49,0004.01,0003.29
2021-11-06 04:39:00,,0828.8,4.99,0.00,29.7,28.7,00.0,38.8,31.3,08.7,0000.0,0010.45,0004.04,0003.30
2021-11-06 04:40:00,,0828.5,5.00,0.00,29.7,28.7,00.0,38.7,31.4,08.7,0000.0,0010.53,0004.04,0003.30
2021-11-06 04:41:00,,0829.0,5.01,0.00,29.7,28.7,00.0,38.7,31.3,08.7,0000.0,0010.31,0004.00,0003.30
2021-11-06 04:42:00,,0829.1,4.99,0.00,29.7,28.7,00.0,38.7,31.3,08.7,0000.0,0010.21,0004.00,0003.32
2021-11-06 04:43:00,,0829.0,5.00,0.00,29.7,28.7,00.0,38.7,31.3,08.8,0000.0,0010.46,0004.01,0003.33
2021-11-06 04:44:00,,0828.7,5.00,0.00,29.7,28.7,00.0,38.7,31.3,08.8,0000.0,0010.47,0004.04,0003.34
2021-11-06 04:45:00,,0828.7,4.99,0.00,29.7,28.7,00.0,38.7,31.4,08.8,0000.0,0010.54,0004.09,0003.35
2021-11-06 04:46:00,,0828.7,5.00,0.00,29.7,28.7,00.0,38.7,31.4,08.7,0000.0,0010.53,0004.11,0003.36
2021-11-06 04:47:00,,0828.8,5.01,0.00,29.7,28.7,00.0,38.7,31.3,08.7,0000.0,0011.02,0004.14,0003.39
2021-11-06 04:48:00,,0828.7,4.99,0.00,29.7,28.6,00.0,38.7,31.3,08.7,0000.0,0011.02,0004.17,0003.43
2021-11-06 04:49:00,,0828.9,4.99,0.00,29.7,28.7,00.0,38.7,31.3,08.7,0000.0,0011.13,0004.22,0003.46
2021-11-06 04:50:00,,0829.0,5.00,0.00,29.7,28.7,00.0,38.7,31.3,08.7,0000.0,0011.28,0004.27,0003.49
2021-11-06 04:51:00,,0829.3,4.99,0.00,29.7,28.6,00.0,38.7,31.3,08.7,0000.0,0011.61,0004.32,0003.53
2021-11-06 04:52:00,,0829.3,4.99,0.00,29.7,28.6,00.0,38.7,31.3,08.7,0000.0,0011.88,0004.40,0003.58
2021-11-06 04:53:00,,0829.3,5.01,0.00,29.7,28.7,00.0,38.7,31.3,08.6,0000.0,0011.22,0004.42,0003.60
2021-11-06 04:54:00,,0829.3,5.01,0.00,29.7,28.7,00.0,38.7,31.3,08.6,0000.0,0011.01,0004.48,0003.64
2021-11-06 04:55:00,,0829.3,5.00,0.00,29.7,28.6,00.0,38.7,31.3,08.6,0000.0,0012.22,0004.51,0003.68
2021-11-06 04:56:00,,0829.3,5.01,0.00,29.7,28.6,00.0,38.7,31.3,08.6,0000.0,0012.91,0004.55,0003.70
2021-11-06 04:57:00,,0829.4,5.01,0.00,29.6,28.7,00.0,38.7,31.3,08.6,0000.0,0012.64,0004.62,0003.73
2021-11-06 04:58:00,,0829.3,4.99,0.00,29.6,28.7,00.0,38.7,31.3,08.6,0000.0,0012.07,0004.65,0003.75
2021-11-06 04:59:00,,0829.1,5.00,0.00,29.6,28.7,00.0,38.7,31.3,08.6,0000.0,0012.05,0004.70,0003.74
